Location: Palmona Park
(26.6865°N, 81.8965°W)
Time: 13:42:18
(UTC+00:00)

Daily predictions for brighter satellites

Satellite Brightness Start Highest point End
(mag) Time Altitude Azimuth Time Altitude Azimuth Time Altitude Azimuth
H-2A R/B 3.4 22:50:21 10° N 22:54:19 42° WNW 22:58:23 10° SW
Cosmos 405 Rocket 2.9 22:50:24 10° N 22:54:21 83° W 22:58:21 10° S
Abrixas rocket 4.1 22:56:23 10° NNE 22:56:53 10° NE 22:57:23 10° NE
NOAA 6 4.5 22:53:38 10° S 22:58:46 70° WSW 23:03:54 10° NNW
SKYMED 2 4.2 22:55:45 10° NNE 22:59:45 36° E 23:03:44 10° SSE
Cosmos 1867 4.4 22:55:27 10° SW 23:00:41 51° WNW 23:05:58 10° NNE
X-37B 0.5 22:57:53 10° SW 23:01:02 82° SE 23:04:11 10° NE
Cosmos 1606 3.1 23:00:07 10° S 23:03:58 71° W 23:07:52 10° N
Cosmos 1633 Rocket 4.3 23:01:38 10° NNE 23:04:56 21° E 23:08:13 10° SE
Cosmos 1933 3.4 23:02:43 10° S 23:06:38 57° E 23:10:36 10° NNE
ATLAS 3B CENTAUR R/B -0.2 23:05:01 10° W 23:06:49 55° N 23:08:48 12° ENE
SMAP 3.1 23:04:46 10° SSE 23:09:24 88° ENE 23:14:04 10° NNW
Cosmos 2154 Rocket 4.4 23:05:44 10° N 23:12:03 74° W 23:18:21 10° S
Cosmos 2298 Rocket 4.3 23:06:51 10° NNW 23:12:09 75° WSW 23:17:26 10° S
Cosmos 2150 Rocket 4.1 23:07:49 10° NNW 23:12:58 81° WSW 23:18:06 10° S
SAR-Lupe-4 3.7 23:11:01 10° NNE 23:14:30 51° E 23:17:59 10° S
Cosmos 1818 3.6 23:11:49 10° NNW 23:17:11 58° ENE 23:22:31 10° SE
H-2A R/B 4.4 23:15:24 10° SSW 23:19:29 36° W 23:23:28 10° NNW
Cosmos 1943 Rocket 4.0 23:19:00 10° NE 23:19:12 10° NE 23:19:12 10° NE
Cosmos 1782 3.4 23:17:05 10° SSE 23:20:39 34° E 23:24:14 10° NNE
SL-16 R/B 2.6 23:16:43 10° SSW 23:22:20 66° WNW 23:27:57 10° NNE
Meteor 1-4 Rocket 3.1 23:19:09 10° SSE 23:22:34 37° E 23:25:57 10° NNE
Cosmos 2341 Rocket 4.0 23:16:42 10° N 23:22:58 68° E 23:29:16 10° SSE
Cosmos 1125 Rocket 3.5 23:18:51 10° NNW 23:24:04 86° ENE 23:29:17 10° SSE
FUSE 4.1 23:20:21 10° W 23:25:43 74° S 23:30:22 14° E
SAR-Lupe-1 4.0 23:28:00 10° NNE 23:31:37 89° W 23:35:11 10° SSW
Helios 1A Rocket 4.2 23:29:38 10° ESE 23:36:28 - NNE 23:31:48 19° E
ERS-2 3.7 23:31:27 10° N 23:34:49 36° WNW 23:38:12 10° SW
Cosmos 1689 Rocket 1.9 23:33:03 10° NNE 23:35:59 85° ESE 23:38:54 10° S
Meteor 1-26 Rocket 4.3 23:30:21 10° S 23:36:17 80° E 23:42:19 10° N
PSLV R/B 3.8 23:33:50 10° NNE 23:37:53 77° ESE 23:41:54 10° S
IRS-1C Rocket 4.3 23:32:56 10° SSE 23:37:57 47° ENE 23:43:00 10° N
SL-24 R/B 3.7 23:35:02 10° N 23:38:50 84° WNW 23:42:27 10° SSW
Cosmos 1515 Rocket 3.6 23:35:01 10° SSE 23:39:12 51° E 23:43:26 10° NNE
CZ-2D R/B 3.6 23:37:00 10° SE 23:40:32 39° ENE 23:44:06 10° N
Cosmos 2181 Rocket 4.4 23:34:42 10° SSW 23:41:06 70° W 23:47:31 10° N
GPS 2-15 Rocket1 4.4 23:36:37 10° WSW 23:41:07 36° S 23:44:49 14° ESE
Cosmos 1470 Rocket 4.2 23:37:49 10° NNE 23:41:37 30° E 23:45:25 10° SE
Lacrosse 5 rocket 3.7 23:39:43 10° W 23:41:54 15° NW 23:44:03 10° N
SL-8 Rocket 3.9 23:36:20 10° N 23:42:34 74° E 23:48:50 10° S
Okean-O 3.3 23:41:12 10° SE 23:45:06 31° ENE 23:49:01 10° N
COSMO-SKYMED 1 3.4 23:43:33 10° N 23:47:45 51° WNW 23:51:56 10° SSW
Cosmos 1602 4.1 23:49:53 30° NE 23:51:00 38° E 23:54:37 10° SSE
Cosmos 1959 Rocket 4.4 23:44:44 10° N 23:51:04 70° E 23:57:21 10° SSE
Sich 1 4.5 23:48:30 10° NNW 23:52:33 39° W 23:56:34 10° SSW
Okean O Rocket 3.8 23:50:21 10° SSW 23:54:02 27° W 23:57:46 10° NW
